Погода в Джиндже

Уганда     0°26′04″N   33°12′34″E
темп.,
°C
ветер,
м/с
пор.,
м/с
влажн.,
%
обл.,
%
осадки,
мм/ч
давл.,
гПа
погр.,
м
24 июля, сб
сб2400:00+22ю2362100 0.0 1014103
03:00+21зсз1161100 0.0 101328
06:00+19з11695 0.0 101433
09:00+25ю36536 0.1 10151351
12:00+25ю57517 0.5 10151476
15:00+26ю574519 0.5 10131364
18:00+23ююз365315 0.0 1012632
21:00+21ююз2563100 0.0 1013170
25 июля, вс
вс2500:00+22ю1259100 0.0 101380
03:00+21юв026199 0.0 1012123
06:00+20с116681 0.1 101327
09:00+22зюз146498 0.3 1015465
12:00+27ю554770 0.1 10141909
15:00+24ю5749100 0.1 10121018
18:00+23ююз4656100 0.0 1012726
21:00+18юз23755 0.0 1015105
26 июля, пн
пн2600:00+20ю226473 0.0 101471
03:00+21юв225899 0.0 1012129
06:00+18всв117475 0.0 101453
09:00+23в025883 0.1 1015436
12:00+26ю5646100 0.1 10141711
15:00+26ю564513 0.1 10131571
18:00+23ююз355368 0.0 1013654
21:00+18ююз227564 0.0 101676
27 июля, вт
вт2700:00+18ю1272100 0.0 101572
03:00+19св1169100 0.0 101349
06:00+17св1182100 0.0 101540
09:00+22с1162100 0.0 1016351
12:00+27ююв224296 0.0 10142019
15:00+23ю3556100 0.0 1013416
18:00+23ююз365092 0.0 1012595
21:00+19ююз22685 0.0 101567
28 июля, ср
ср2800:00+18юз116841 0.0 101555
03:00+17с117381 0.0 101432
06:00+16св117399 0.0 101531
09:00+22ссз125197 0.0 1016308
12:00+25юз124098 0.0 10151015
15:00+25ю444768 0.0 1012849
18:00+24ююз464821 0.0 1012672
21:00+19ююз226836 0.0 101482